Zurück zum Katalog

STARLINK-34345

AktivKommunikationSSO
NORAD 64153·PAYLOAD·🇺🇸 United States

Gestartet May 27, 2025 von Vandenberg Space Force Base

Loading…

Nächste Überflüge (nächste 24 Stunden)

TLE

AktuellSource: CelesTrak SupGP

Epoche: Sep 14, 2026, 21:39 UTC

1 64153C 25112H   26257.90256944  .00013069  00000+0  40575-3 0  2570
2 64153  97.2837 305.0571 0001072  89.6686 170.3957 15.33429527    15

Verfolge STARLINK-34345 in Echtzeit mit AllMySat

Download on the App Store